Weather History for New Orleans Lakefront, LA

Change the Weather History Date:

Thursday, February 14, 2013

  Actual Average Record
Temperature  
Mean Temperature 51 °F 56 °F  
Max Temperature 59 °F 65 °F 82 °F (2001)
Min Temperature 42 °F 48 °F 23 °F (1960)
Degree Days  
Heating Degree Days 14 9  
Month to date heating degree days 80 144  
Since 1 July heating degree days 765 1000  
Cooling Degree Days 0 1  
Month to date cooling degree days 7 14  
Year to date cooling degree days 32 30  
Growing Degree Days 6 (Base 50)    
Moisture  
Dew Point 39 °F    
Average Humidity 65    
Maximum Humidity 82    
Minimum Humidity 47    
Precipitation  
Precipitation 0.00 in 0.19 in 2.84 in (2009)
Month to date precipitation 3.21 2.76  
Year to date precipitation 9.80 7.91  
Snow  
Snow 0.00 in - - ()
Month to date snowfall 0.0  
Since 1 July snowfall 0.0  
Snow Depth 0.00 in    
Sea Level Pressure  
Sea Level Pressure 30.10 in    
Wind  
Wind Speed 4 mph (NE)    
Max Wind Speed 14 mph    
Max Gust Speed 17 mph    
Visibility 10 miles    
Events      
T = Trace of Precipitation, MM = Missing Value Source: NWS Daily Summary

Daily Weather History Graph

Daily Weather History Graph

Search for Another Location

Airport:

Trip Planner

Search our weather history database for the weather conditions in past years. The results will help you decide how hot, cold, wet, or windy it might be!

Date:

Astronomy

Feb. 14, 2013 Rise Set
Actual Time 6:40 AM CST 5:48 PM CST
Civil Twilight 6:16 AM CST 6:12 PM CST
Nautical Twilight 5:48 AM CST 6:40 PM CST
Astronomical Twilight 5:20 AM CST 7:08 PM CST
Moon 9:07 AM CST (2/14) 10:24 PM CST (2/14)
Length of Visible Light 11h 56m
Length of Day
11h 07m
Waxing Crescent, 22% of the Moon is Illuminated
Feb 14
Waxing Crescent
Feb 17
First Quarter
Feb 25
Full
Mar 4
Last Quarter
Mar 11
New

Hourly Weather History & Observations

Time (CST) Temp. Dew Point Humidity Pressure Visibility Wind Dir Wind Speed Gust Speed Precip Events Conditions
12:53 AM 53.1 °F 39.0 °F 59% 30.07 in 10.0 mi NE 12.7 mph - N/A   Clear
1:53 AM 52.0 °F 39.0 °F 61% 30.07 in 10.0 mi NE 12.7 mph - N/A   Clear
2:53 AM 52.0 °F 37.9 °F 59% 30.09 in 10.0 mi NE 11.5 mph - N/A   Clear
3:53 AM 52.0 °F 37.0 °F 57% 30.07 in 10.0 mi NE 11.5 mph - N/A   Clear
4:53 AM 52.0 °F 37.9 °F 59% 30.06 in 10.0 mi NNE 15.0 mph - N/A   Clear
5:53 AM 52.0 °F 37.9 °F 59% 30.09 in 10.0 mi NE 11.5 mph - N/A   Clear
6:53 AM 51.1 °F 39.9 °F 66% 30.13 in 10.0 mi NNE 12.7 mph - N/A   Clear
7:53 AM 52.0 °F 39.9 °F 63% 30.12 in 10.0 mi NNE 15.0 mph - N/A   Clear
8:53 AM 52.0 °F 39.0 °F 61% 30.16 in 10.0 mi NE 9.2 mph - N/A   Clear
9:53 AM 53.1 °F 37.9 °F 57% 30.15 in 10.0 mi NE 8.1 mph - N/A   Clear
10:53 AM 54.0 °F 37.9 °F 55% 30.16 in 10.0 mi ENE 8.1 mph - N/A   Clear
11:53 AM 55.9 °F 37.0 °F 49% 30.13 in 10.0 mi ENE 8.1 mph - N/A   Clear
12:53 PM 57.0 °F 37.0 °F 47% 30.10 in 10.0 mi NE 4.6 mph - N/A   Clear
1:53 PM 57.9 °F 37.9 °F 47% 30.08 in 10.0 mi NNE 3.5 mph - N/A   Clear
2:53 PM 59.0 °F 39.9 °F 49% 30.07 in 10.0 mi NW 4.6 mph - N/A   Clear
3:53 PM 60.1 °F 41.0 °F 49% 30.06 in 10.0 mi NW 3.5 mph - N/A   Clear
4:53 PM 60.1 °F 39.9 °F 47% 30.06 in 10.0 mi WNW 3.5 mph - N/A   Clear
5:53 PM 57.9 °F 39.0 °F 49% 30.07 in 10.0 mi Calm Calm - N/A   Clear
6:53 PM 57.9 °F 41.0 °F 53% 30.08 in 10.0 mi Calm Calm - N/A   Clear
7:53 PM 57.0 °F 41.0 °F 55% 30.09 in 10.0 mi Calm Calm - N/A   Clear
8:53 PM 54.0 °F 41.0 °F 62% 30.09 in 10.0 mi South 3.5 mph - N/A   Clear
9:53 PM 54.0 °F 41.0 °F 62% 30.10 in 10.0 mi South 3.5 mph - N/A   Clear
10:53 PM 52.0 °F 39.9 °F 63% 30.11 in 10.0 mi South 4.6 mph - N/A   Clear
11:53 PM 52.0 °F 41.0 °F 66% 30.10 in 9.0 mi South 3.5 mph - N/A   Clear